Hourly Weather Lufkin

Today, 17 May, Monday

Time Temperature Precipitation Wind Pressure Humidity
00:00 +21°C° 1.1 mm 3 mps 752 mmHg 97%
01:00 +21°C° 0.2 mm 3 mps 752 mmHg 97%
02:00 +21°C° 0.2 mm 3 mps 751 mmHg 97%
03:00 +21°C° 0.2 mm 3 mps 751 mmHg 97%
04:00 +21°C° 0.2 mm 3 mps 751 mmHg 97%
05:00 +21°C° 0.2 mm 3 mps 751 mmHg 97%
06:00 +21°C° 0.2 mm 3 mps 751 mmHg 97%
07:00 +21°C° 0.3 mm 3 mps 752 mmHg 96%
08:00 +21°C° 0.3 mm 3 mps 752 mmHg 95%
09:00 +21°C° 0.3 mm 3 mps 752 mmHg 94%
10:00 +24°C° 0.8 mm 3 mps 752 mmHg 91%
11:00 +25°C° 0.8 mm 3 mps 752 mmHg 89%
12:00 +26°C° 0.8 mm 3 mps 752 mmHg 86%
13:00 +28°C° 0.1 mm 3 mps 751 mmHg 78%
14:00 +29°C° 0.1 mm 3 mps 751 mmHg 70%
15:00 +31°C° 0.1 mm 3 mps 750 mmHg 61%
16:00 +30°C° 0.6 mm 3 mps 750 mmHg 69%
17:00 +28°C° 0.6 mm 3 mps 750 mmHg 77%
18:00 +27°C° 0.6 mm 2 mps 750 mmHg 84%
19:00 +26°C° 0 mm 2 mps 750 mmHg 87%
20:00 +25°C° 0 mm 3 mps 750 mmHg 89%
21:00 +24°C° 0 mm 3 mps 750 mmHg 92%
22:00 +22°C° 0 mm 3 mps 751 mmHg 93%
23:00 +22°C° 0 mm 3 mps 751 mmHg 94%

Tomorrow, 18 May, Tuesday

Time Temperature Precipitation Wind Pressure Humidity
00:00 +22°C° 0 mm 3 mps 751 mmHg 95%
01:00 +22°C° 0 mm 3 mps 751 mmHg 95%
02:00 +22°C° 0 mm 3 mps 750 mmHg 95%
03:00 +22°C° 0 mm 3 mps 750 mmHg 95%
04:00 +22°C° 0 mm 3 mps 750 mmHg 94%
05:00 +24°C° 0 mm 3 mps 750 mmHg 93%
06:00 +24°C° 0 mm 3 mps 751 mmHg 92%
07:00 +25°C° 0 mm 3 mps 751 mmHg 88%
08:00 +26°C° 0 mm 3 mps 751 mmHg 85%
09:00 +27°C° 0 mm 4 mps 751 mmHg 82%
10:00 +28°C° 0.4 mm 4 mps 751 mmHg 79%
11:00 +29°C° 0.4 mm 4 mps 751 mmHg 76%
12:00 +30°C° 0.4 mm 4 mps 750 mmHg 73%
13:00 +29°C° 1.3 mm 4 mps 750 mmHg 75%
14:00 +29°C° 1.3 mm 3 mps 750 mmHg 77%
15:00 +29°C° 1.3 mm 3 mps 749 mmHg 79%
16:00 +29°C° 0.4 mm 4 mps 749 mmHg 79%
17:00 +28°C° 0.4 mm 4 mps 749 mmHg 79%
18:00 +28°C° 0.4 mm 4 mps 749 mmHg 79%
19:00 +27°C° 0.1 mm 4 mps 749 mmHg 82%
20:00 +26°C° 0.1 mm 4 mps 750 mmHg 85%
21:00 +25°C° 0.1 mm 5 mps 750 mmHg 89%
22:00 +25°C° 0.1 mm 5 mps 750 mmHg 89%
23:00 +25°C° 0.1 mm 5 mps 750 mmHg 88%

Day after tomorrow, 19 May, Wednesday

Time Temperature Precipitation Wind Pressure Humidity
00:00 +25°C° 0.1 mm 5 mps 750 mmHg 88%
01:00 +23°C° 1 mm 4 mps 750 mmHg 90%
02:00 +23°C° 1 mm 4 mps 750 mmHg 92%
03:00 +23°C° 1 mm 4 mps 751 mmHg 94%
04:00 +22°C° 5 mm 3 mps 751 mmHg 95%
05:00 +20°C° 5 mm 3 mps 752 mmHg 97%
06:00 +19°C° 5 mm 2 mps 752 mmHg 98%
07:00 +19°C° 5.5 mm 2 mps 753 mmHg 98%
08:00 +19°C° 5.5 mm 2 mps 753 mmHg 98%
09:00 +20°C° 5.5 mm 1 mps 753 mmHg 98%
10:00 +19°C° 4.4 mm 2 mps 753 mmHg 98%
11:00 +19°C° 4.4 mm 2 mps 754 mmHg 98%
12:00 +19°C° 4.4 mm 2 mps 754 mmHg 98%
13:00 +19°C° 5.4 mm 2 mps 753 mmHg 98%
14:00 +19°C° 5.4 mm 2 mps 753 mmHg 98%
15:00 +19°C° 5.4 mm 2 mps 753 mmHg 98%
16:00 +19°C° 3.2 mm 2 mps 752 mmHg 98%
17:00 +18°C° 3.2 mm 2 mps 752 mmHg 98%
18:00 +18°C° 3.2 mm 2 mps 752 mmHg 98%
19:00 +18°C° 1.2 mm 2 mps 752 mmHg 97%
20:00 +19°C° 1.2 mm 3 mps 752 mmHg 97%
21:00 +19°C° 1.2 mm 3 mps 752 mmHg 97%
22:00 +19°C° 0.7 mm 2 mps 752 mmHg 97%
23:00 +19°C° 0.7 mm 2 mps 753 mmHg 98%

20 May, Thursday

Time Temperature Precipitation Wind Pressure Humidity
00:00 +20°C° 0.7 mm 2 mps 753 mmHg 98%
01:00 +20°C° 0.7 mm 2 mps 752 mmHg 98%
02:00 +21°C° 0.7 mm 2 mps 752 mmHg 98%
03:00 +21°C° 0.7 mm 3 mps 752 mmHg 98%
04:00 +22°C° 0 mm 3 mps 752 mmHg 97%
05:00 +22°C° 0 mm 3 mps 753 mmHg 96%
06:00 +22°C° 0 mm 3 mps 753 mmHg 96%
07:00 +22°C° 0 mm 3 mps 753 mmHg 94%
08:00 +24°C° 0 mm 3 mps 754 mmHg 91%
09:00 +24°C° 0 mm 3 mps 754 mmHg 89%
10:00 +26°C° 0.2 mm 4 mps 754 mmHg 85%
11:00 +27°C° 0.2 mm 4 mps 754 mmHg 80%
12:00 +28°C° 0.2 mm 4 mps 754 mmHg 76%
13:00 +28°C° 0.9 mm 4 mps 754 mmHg 79%
14:00 +28°C° 0.9 mm 4 mps 753 mmHg 82%
15:00 +28°C° 0.9 mm 3 mps 753 mmHg 84%
16:00 +27°C° 0.8 mm 3 mps 753 mmHg 86%
17:00 +26°C° 0.8 mm 3 mps 754 mmHg 88%
18:00 +25°C° 0.8 mm 3 mps 754 mmHg 90%
19:00 +25°C° 0.2 mm 3 mps 754 mmHg 93%
20:00 +24°C° 0.2 mm 3 mps 755 mmHg 95%
21:00 +23°C° 0.2 mm 2 mps 755 mmHg 97%
22:00 +22°C° 0 mm 3 mps 755 mmHg 97%
23:00 +22°C° 0 mm 3 mps 756 mmHg 97%

21 May, Friday

Time Temperature Precipitation Wind Pressure Humidity
00:00 +21°C° 0 mm 3 mps 756 mmHg 97%
01:00 +22°C° 0 mm 3 mps 756 mmHg 96%
02:00 +22°C° 0 mm 3 mps 756 mmHg 95%
03:00 +22°C° 0 mm 3 mps 756 mmHg 94%
04:00 +22°C° 0 mm 3 mps 756 mmHg 93%
05:00 +22°C° 0 mm 3 mps 756 mmHg 93%
06:00 +22°C° 0 mm 3 mps 757 mmHg 93%
07:00 +24°C° 0 mm 3 mps 757 mmHg 86%
08:00 +26°C° 0 mm 4 mps 757 mmHg 80%
09:00 +27°C° 0 mm 4 mps 757 mmHg 73%
10:00 +28°C° 0 mm 4 mps 757 mmHg 69%
11:00 +29°C° 0 mm 4 mps 757 mmHg 65%
12:00 +30°C° 0 mm 4 mps 757 mmHg 61%
13:00 +30°C° 0.1 mm 4 mps 757 mmHg 61%
14:00 +30°C° 0.1 mm 4 mps 757 mmHg 62%
15:00 +30°C° 0.1 mm 5 mps 757 mmHg 62%
16:00 +29°C° 0.1 mm 4 mps 757 mmHg 65%
17:00 +29°C° 0.1 mm 4 mps 757 mmHg 67%
18:00 +28°C° 0.1 mm 3 mps 757 mmHg 70%
19:00 +27°C° 0 mm 3 mps 757 mmHg 72%
20:00 +26°C° 0 mm 3 mps 758 mmHg 74%
21:00 +25°C° 0 mm 3 mps 758 mmHg 76%
22:00 +24°C° 0 mm 3 mps 759 mmHg 81%
23:00 +23°C° 0 mm 2 mps 759 mmHg 85%

22 May, Saturday

Time Temperature Precipitation Wind Pressure Humidity
00:00 +21°C° 0 mm 2 mps 759 mmHg 90%
01:00 +20°C° 0 mm 2 mps 759 mmHg 93%
02:00 +19°C° 0 mm 2 mps 758 mmHg 95%
03:00 +18°C° 0 mm 2 mps 758 mmHg 97%
04:00 +18°C° 0 mm 2 mps 759 mmHg 97%
05:00 +18°C° 0 mm 2 mps 759 mmHg 97%
06:00 +18°C° 0 mm 2 mps 759 mmHg 96%
07:00 +20°C° 0 mm 2 mps 759 mmHg 87%
08:00 +23°C° 0 mm 2 mps 760 mmHg 78%
09:00 +26°C° 0 mm 3 mps 760 mmHg 68%
10:00 +27°C° 0 mm 3 mps 760 mmHg 62%
11:00 +29°C° 0 mm 3 mps 759 mmHg 55%
12:00 +32°C° 0 mm 4 mps 759 mmHg 48%
13:00 +31°C° 0 mm 3 mps 759 mmHg 47%
14:00 +33°C° 0 mm 3 mps 758 mmHg 45%
15:00 +33°C° 0 mm 3 mps 758 mmHg 44%
16:00 +31°C° 0 mm 3 mps 757 mmHg 51%
17:00 +29°C° 0 mm 2 mps 757 mmHg 59%
18:00 +28°C° 0 mm 2 mps 757 mmHg 66%
19:00 +26°C° 0 mm 2 mps 757 mmHg 69%
20:00 +25°C° 0 mm 2 mps 758 mmHg 73%
21:00 +23°C° 0 mm 2 mps 758 mmHg 77%
22:00 +23°C° 0 mm 1 mps 758 mmHg 81%
23:00 +22°C° 0 mm 1 mps 758 mmHg 85%
Show more

We Need Your Consent

Meteoprog and our Service Providers may store and access personal data such as cookies, device identifiers or other similar technologies on your device and process such data to personalise content and ads, as well as provide social media features and to analyse the traffic.

  • Store and/or access information on your device

    Cookies, device identifiers or other information can be stored or accessed on your device for the purposes indicated above.

  • Personalised ads and content, ad and content measurement, audience insights, and products development

    Ads and content can be personalised based on a profile. More data can be added to better personalise ads and content. Ad and content performance can be measured. Insights about the audience who saw the ads and content can be derived. Such data can be used to develop or improve user’s experience, systems and software.

By clicking ‘I Agree’ you will allow the use of indicated cookies, device identifiers, web beacons or other similar technologies. Your settings can be changed in the browser on your device.

For certain purposes, legitimate interests may be relied on, rather than consent. You can read more about this in our Privacy and Cookie Policy.